Location: *
(48.8667°N, 2.3331°E)
Time: 07:55:09
(UTC+00:00)

STARLINK-1214 - Pass Details

Date: 09 April 2020
Orbit: 375 x 384 km, 53.0° (Epoch: 25 May)

Event Time Altitude Azimuth Distance (km) Brightness Sun altitude
Rises 19:59:31 0° 293° (WNW) 2,270 8.7 -13.8°
Reaches altitude 10° 20:01:37 10° 287° (WNW) 1,414 7.0 -14.1°
Maximum altitude 20:04:39 45° 213° (SSW) 538 3.6 -14.6°
Enters shadow 20:05:53 28° 158° (SSE) 753 3.9 -14.7°
